SCP
0 0 0 0 0 0 0 -0 -0 -0 0 0 0 0 0 0 0 0 0 0 0 0
0 0 0 0 0 0 0 -0 -0 -0 0 0 -0 0 0 0 0 0 0 0 0 0
0 0 0 0 0 0 0 0 -0 -0 -0 0 0 0 -0 0 0 0 0 0 0 0
-0 0 0 0 0 0 0 0 -0 -0 -0 0 0 0 -0 -0 0 0 0 0 0 0
-0 -0 -0 0 0 0 0 0 0 0 -0 0 0 0 -0 -0 0 -0 0 0 0 0
-0 -0 -0 -0 0 0 0 0 0 0 0 0 0 0 0 -0 -0 -0 0 0 0 0
-1 -1 -0 -0 0 0 0 0 0 0 0 0 0 0 0 0 0 0 0 0 0 0
-0 -0 -0 -0 -0 0 0 0 0 0 0 0 0 0 0 0 0 0 0 0 0 0
0 -0 -0 -0 0 0 0 0 0 0 0 0 0 0 0 0 0 0 0 0 0 0
0 0 -0 -0 -0 0 0 0 0 0 0 0 0 0 0 0 0 0 0 0 0 0
1 1 0 0 0 0 0 0 1 1 0 0 0 0 0 0 1 1 0 0 0 0
1 1 2 2 0 1 2 1 1 1 1 1 1 0 0 0 1 1 1 0 0 0
2 3 2 2 1 2 3 3 3 2 2 2 2 0 0 0 1 1 1 1 1 0
3 3 3 4 4 3 4 5 5 5 4 3 2 2 0 0 2 2 2 1 1 1
Wind_Speed_500mb
80 76 67 62 55 56 62 57 49 51 46 38 31 31 32 32 30 26 24 23 24 21
88 82 74 66 60 61 59 61 55 53 46 39 36 35 34 34 33 31 27 24 27 26
95 86 76 68 65 63 63 62 66 58 52 46 42 39 40 37 36 36 32 29 29 30
101 95 88 77 67 67 64 63 69 66 58 55 49 45 47 43 40 41 39 36 33 32
103 99 95 86 75 70 67 68 69 73 69 61 56 49 49 48 47 44 43 41 40 38
106 105 100 91 79 78 72 71 74 74 75 69 65 61 56 53 51 48 44 42 43 45
105 103 97 91 86 81 80 78 81 83 82 77 72 69 63 60 57 54 52 49 46 45
104 100 95 94 90 82 83 84 84 88 90 89 85 80 75 69 63 59 56 55 54 51
103 99 97 98 96 91 87 92 92 91 96 98 94 89 84 76 70 65 63 59 55 58
95 99 98 98 101 102 96 94 98 98 96 100 102 98 87 79 76 74 71 62 57 58
92 91 95 99 104 107 106 103 102 103 102 99 98 96 91 86 82 83 75 67 61 56
91 90 92 97 99 106 114 113 110 109 107 105 102 95 88 84 89 93 82 71 61 54
87 90 93 96 97 101 107 115 114 112 111 108 103 93 84 82 90 89 76 61 56 49
87 88 88 90 97 101 102 104 111 113 111 111 104 98 88 81 85 78 64 58 55 45
Wind_Direction_500mb
232 232 233 233 233 229 226 230 232 233 236 236 239 232 231 232 233 233 235 236 237 238
232 232 234 235 235 231 231 228 230 234 234 234 234 233 229 231 230 233 239 242 239 240
234 234 235 236 235 234 230 231 229 233 231 233 232 235 230 227 230 232 234 238 241 241
236 236 236 236 235 235 233 230 229 229 234 235 230 233 231 227 229 233 234 235 238 242
238 238 238 238 236 236 236 232 232 232 233 231 228 228 229 227 228 232 235 237 237 239
239 237 239 239 237 236 236 234 232 231 229 228 227 226 228 230 232 235 241 244 244 242
239 236 237 238 237 236 236 236 233 231 231 230 230 230 231 232 233 236 239 242 246 247
240 238 235 236 237 237 237 237 237 235 234 235 235 234 233 233 235 238 243 245 246 247
239 238 237 233 235 235 237 238 239 238 237 239 239 238 238 239 241 243 245 248 250 251
237 239 238 233 231 234 235 238 239 241 241 241 242 243 242 242 245 246 247 250 252 253
235 237 238 235 232 233 234 237 240 242 243 244 245 245 245 244 245 248 247 247 247 249
235 236 237 237 237 234 235 236 238 241 244 245 246 246 246 242 242 244 243 243 242 239
239 238 239 241 240 238 237 240 243 244 246 248 249 248 244 240 239 240 237 234 235 234
241 242 245 246 244 242 240 240 243 245 247 249 248 247 240 236 235 233 226 221 228 221
Wind_Speed_850mb
80 76 67 62 55 56 62 57 49 51 46 38 31 31 32 32 30 26 24 23 24 21
88 82 74 66 60 61 59 61 55 53 46 39 36 35 34 34 33 31 27 24 27 26
95 86 76 68 65 63 63 62 66 58 52 46 42 39 40 37 36 36 32 29 29 30
101 95 88 77 67 67 64 63 69 66 58 55 49 45 47 43 40 41 39 36 33 32
103 99 95 86 75 70 67 68 69 73 69 61 56 49 49 48 47 44 43 41 40 38
106 105 100 91 79 78 72 71 74 74 75 69 65 61 56 53 51 48 44 42 43 45
105 103 97 91 86 81 80 78 81 83 82 77 72 69 63 60 57 54 52 49 46 45
104 100 95 94 90 82 83 84 84 88 90 89 85 80 75 69 63 59 56 55 54 51
103 99 97 98 96 91 87 92 92 91 96 98 94 89 84 76 70 65 63 59 55 58
95 99 98 98 101 102 96 94 98 98 96 100 102 98 87 79 76 74 71 62 57 58
92 91 95 99 104 107 106 103 102 103 102 99 98 96 91 86 82 83 75 67 61 56
91 90 92 97 99 106 114 113 110 109 107 105 102 95 88 84 89 93 82 71 61 54
87 90 93 96 97 101 107 115 114 112 111 108 103 93 84 82 90 89 76 61 56 49
87 88 88 90 97 101 102 104 111 113 111 111 104 98 88 81 85 78 64 58 55 45
Wind_Direction_850mb
232 232 233 233 233 229 226 230 232 233 236 236 239 232 231 232 233 233 235 236 237 238
232 232 234 235 235 231 231 228 230 234 234 234 234 233 229 231 230 233 239 242 239 240
234 234 235 236 235 234 230 231 229 233 231 233 232 235 230 227 230 232 234 238 241 241
236 236 236 236 235 235 233 230 229 229 234 235 230 233 231 227 229 233 234 235 238 242
238 238 238 238 236 236 236 232 232 232 233 231 228 228 229 227 228 232 235 237 237 239
239 237 239 239 237 236 236 234 232 231 229 228 227 226 228 230 232 235 241 244 244 242
239 236 237 238 237 236 236 236 233 231 231 230 230 230 231 232 233 236 239 242 246 247
240 238 235 236 237 237 237 237 237 235 234 235 235 234 233 233 235 238 243 245 246 247
239 238 237 233 235 235 237 238 239 238 237 239 239 238 238 239 241 243 245 248 250 251
237 239 238 233 231 234 235 238 239 241 241 241 242 243 242 242 245 246 247 250 252 253
235 237 238 235 232 233 234 237 240 242 243 244 245 245 245 244 245 248 247 247 247 249
235 236 237 237 237 234 235 236 238 241 244 245 246 246 246 242 242 244 243 243 242 239
239 238 239 241 240 238 237 240 243 244 246 248 249 248 244 240 239 240 237 234 235 234
241 242 245 246 244 242 240 240 243 245 247 249 248 247 240 236 235 233 226 221 228 221